When you browse on this site, cookies collect data to enhance your experience and personalize the content and advertising you see.
Visit our Privacy Policy to learn more. By continuing to use the site, you agree to this use of cookies and data.
  • In Hungary
  • List of Countries
  • For 7 days
  • Water Temperature
  • Satellite Maps
  • Weather Map
  • News
  • Weather Widgets
  • user-avatar
    Login

    Hourly Weather Etchmiadzin

    Today, 20 April, Saturday

    Time Temperature Precipitation Wind Pressure Humidity
    00:00 +9°C° 0.1 mm 2 mps 681 mmHg 53%
    01:00 +9°C° 0.1 mm 2 mps 681 mmHg 55%
    02:00 +8°C° 0.1 mm 2 mps 681 mmHg 56%
    03:00 +7°C° 0 mm 2 mps 681 mmHg 59%
    04:00 +7°C° 0.1 mm 2 mps 681 mmHg 59%
    05:00 +7°C° 0.1 mm 2 mps 681 mmHg 58%
    06:00 +7°C° 0.1 mm 2 mps 681 mmHg 58%
    07:00 +8°C° 0.1 mm 2 mps 682 mmHg 55%
    08:00 +8°C° 0.1 mm 2 mps 682 mmHg 51%
    09:00 +10°C° 0 mm 2 mps 682 mmHg 47%
    10:00 +10°C° 0.1 mm 2 mps 682 mmHg 45%
    11:00 +12°C° 0.1 mm 1 mps 683 mmHg 42%
    12:00 +13°C° 0.1 mm 1 mps 683 mmHg 39%
    13:00 +13°C° 0 mm 1 mps 683 mmHg 38%
    14:00 +13°C° 0 mm 1 mps 682 mmHg 37%
    15:00 +14°C° 0 mm 2 mps 682 mmHg 36%
    16:00 +13°C° 0 mm 2 mps 682 mmHg 37%
    17:00 +13°C° 0 mm 2 mps 683 mmHg 38%
    18:00 +11°C° 0 mm 3 mps 683 mmHg 39%
    19:00 +10°C° 0 mm 3 mps 683 mmHg 41%
    20:00 +9°C° 0 mm 3 mps 683 mmHg 44%
    21:00 +8°C° 0 mm 3 mps 684 mmHg 47%
    22:00 +8°C° 0 mm 3 mps 684 mmHg 48%
    23:00 +7°C° 0 mm 2 mps 684 mmHg 50%

    Tomorrow, 21 April, Sunday

    Time Temperature Precipitation Wind Pressure Humidity
    00:00 +7°C° 0 mm 2 mps 684 mmHg 51%
    01:00 +7°C° 0 mm 2 mps 684 mmHg 52%
    02:00 +7°C° 0 mm 2 mps 684 mmHg 52%
    03:00 +7°C° 0 mm 2 mps 684 mmHg 53%
    04:00 +6°C° 0.1 mm 2 mps 684 mmHg 54%
    05:00 +6°C° 0.1 mm 2 mps 684 mmHg 54%
    06:00 +6°C° 0.1 mm 2 mps 684 mmHg 55%
    07:00 +7°C° 0 mm 2 mps 684 mmHg 51%
    08:00 +9°C° 0 mm 2 mps 684 mmHg 48%
    09:00 +10°C° 0 mm 2 mps 684 mmHg 44%
    10:00 +11°C° 0 mm 3 mps 684 mmHg 41%
    11:00 +12°C° 0 mm 3 mps 684 mmHg 39%
    12:00 +13°C° 0 mm 3 mps 684 mmHg 36%
    13:00 +14°C° 0 mm 3 mps 683 mmHg 36%
    14:00 +14°C° 0 mm 3 mps 683 mmHg 35%
    15:00 +16°C° 0 mm 3 mps 683 mmHg 35%
    16:00 +14°C° 0 mm 3 mps 683 mmHg 37%
    17:00 +13°C° 0 mm 4 mps 683 mmHg 40%
    18:00 +13°C° 0 mm 4 mps 683 mmHg 42%
    19:00 +11°C° 0 mm 4 mps 683 mmHg 44%
    20:00 +10°C° 0 mm 4 mps 683 mmHg 47%
    21:00 +8°C° 0 mm 4 mps 684 mmHg 49%
    22:00 +8°C° 0 mm 4 mps 684 mmHg 50%
    23:00 +7°C° 0 mm 4 mps 684 mmHg 51%

    Day after tomorrow, 22 April, Monday

    Time Temperature Precipitation Wind Pressure Humidity
    00:00 +8°C° 0 mm 3 mps 684 mmHg 52%
    01:00 +7°C° 0 mm 3 mps 684 mmHg 53%
    02:00 +7°C° 0 mm 3 mps 684 mmHg 54%
    03:00 +7°C° 0 mm 2 mps 684 mmHg 55%
    04:00 +6°C° 0 mm 2 mps 683 mmHg 55%
    05:00 +6°C° 0 mm 2 mps 683 mmHg 55%
    06:00 +5°C° 0 mm 3 mps 683 mmHg 55%
    07:00 +8°C° 0 mm 3 mps 683 mmHg 49%
    08:00 +9°C° 0 mm 3 mps 683 mmHg 44%
    09:00 +11°C° 0 mm 4 mps 683 mmHg 39%
    10:00 +11°C° 0 mm 3 mps 683 mmHg 37%
    11:00 +12°C° 0 mm 3 mps 682 mmHg 36%
    12:00 +13°C° 0 mm 3 mps 682 mmHg 34%
    13:00 +13°C° 0 mm 3 mps 682 mmHg 35%
    14:00 +13°C° 0 mm 3 mps 682 mmHg 35%
    15:00 +12°C° 0 mm 3 mps 682 mmHg 36%
    16:00 +12°C° 0.1 mm 3 mps 683 mmHg 38%
    17:00 +11°C° 0.1 mm 3 mps 683 mmHg 40%
    18:00 +10°C° 0.1 mm 3 mps 683 mmHg 42%
    19:00 +10°C° 0.1 mm 2 mps 684 mmHg 45%
    20:00 +10°C° 0.1 mm 1 mps 685 mmHg 47%
    21:00 +9°C° 0.1 mm 1 mps 685 mmHg 50%
    22:00 +9°C° 0.1 mm 1 mps 686 mmHg 52%
    23:00 +7°C° 0.1 mm 2 mps 686 mmHg 54%

    23 April, Tuesday

    Time Temperature Precipitation Wind Pressure Humidity
    00:00 +7°C° 0.1 mm 2 mps 686 mmHg 56%
    01:00 +6°C° 0.1 mm 2 mps 686 mmHg 58%
    02:00 +6°C° 0.1 mm 2 mps 686 mmHg 60%
    03:00 +5°C° 0.1 mm 2 mps 686 mmHg 63%
    04:00 +5°C° 0.1 mm 2 mps 687 mmHg 62%
    05:00 +6°C° 0.1 mm 1 mps 687 mmHg 62%
    06:00 +6°C° 0.1 mm 1 mps 687 mmHg 62%
    07:00 +7°C° 0.1 mm 2 mps 688 mmHg 57%
    08:00 +8°C° 0.1 mm 2 mps 688 mmHg 52%
    09:00 +9°C° 0.1 mm 2 mps 688 mmHg 47%
    10:00 +10°C° 0.1 mm 2 mps 688 mmHg 44%
    11:00 +12°C° 0.1 mm 2 mps 688 mmHg 42%
    12:00 +13°C° 0.1 mm 2 mps 688 mmHg 39%
    13:00 +13°C° 0.1 mm 2 mps 688 mmHg 38%
    14:00 +14°C° 0.1 mm 2 mps 688 mmHg 37%
    15:00 +14°C° 0.1 mm 2 mps 688 mmHg 36%
    16:00 +14°C° 0.1 mm 1 mps 688 mmHg 38%
    17:00 +13°C° 0.1 mm 1 mps 688 mmHg 40%
    18:00 +13°C° 0.1 mm 1 mps 688 mmHg 41%
    19:00 +12°C° 0.1 mm 1 mps 689 mmHg 44%
    20:00 +11°C° 0.1 mm 1 mps 689 mmHg 48%
    21:00 +10°C° 0.1 mm 1 mps 690 mmHg 51%
    22:00 +10°C° 0.1 mm 1 mps 690 mmHg 53%
    23:00 +9°C° 0.1 mm 1 mps 690 mmHg 55%

    24 April, Wednesday

    Time Temperature Precipitation Wind Pressure Humidity
    00:00 +9°C° 0.1 mm 1 mps 690 mmHg 57%
    01:00 +8°C° 0.1 mm 1 mps 690 mmHg 60%
    02:00 +8°C° 0.1 mm 1 mps 690 mmHg 62%
    03:00 +7°C° 0.1 mm 1 mps 690 mmHg 65%
    04:00 +7°C° 0.1 mm 1 mps 690 mmHg 65%
    05:00 +7°C° 0.1 mm 1 mps 691 mmHg 66%
    06:00 +7°C° 0.1 mm 1 mps 691 mmHg 66%
    07:00 +8°C° 0.1 mm 1 mps 691 mmHg 61%
    08:00 +9°C° 0.1 mm 1 mps 691 mmHg 56%
    09:00 +10°C° 0.1 mm 1 mps 691 mmHg 51%
    10:00 +11°C° 0.1 mm 1 mps 691 mmHg 47%
    11:00 +12°C° 0.1 mm 1 mps 690 mmHg 44%
    12:00 +13°C° 0.1 mm 2 mps 690 mmHg 40%
    13:00 +14°C° 0.1 mm 1 mps 690 mmHg 39%
    14:00 +14°C° 0.1 mm 1 mps 690 mmHg 38%
    15:00 +14°C° 0.1 mm 1 mps 689 mmHg 37%
    16:00 +14°C° 0.2 mm 2 mps 689 mmHg 40%
    17:00 +13°C° 0.2 mm 2 mps 689 mmHg 43%
    18:00 +12°C° 0.2 mm 3 mps 690 mmHg 45%
    19:00 +12°C° 0.1 mm 2 mps 690 mmHg 48%
    20:00 +10°C° 0.1 mm 2 mps 691 mmHg 50%
    21:00 +9°C° 0.1 mm 2 mps 691 mmHg 53%
    22:00 +9°C° 0 mm 2 mps 692 mmHg 55%
    23:00 +9°C° 0 mm 1 mps 692 mmHg 56%

    25 April, Thursday

    Time Temperature Precipitation Wind Pressure Humidity
    00:00 +9°C° 0 mm 1 mps 692 mmHg 58%
    01:00 +8°C° 0 mm 1 mps 692 mmHg 60%
    02:00 +7°C° 0 mm 1 mps 692 mmHg 62%
    03:00 +6°C° 0 mm 1 mps 692 mmHg 64%
    04:00 +6°C° 0 mm 1 mps 692 mmHg 63%
    05:00 +6°C° 0 mm 1 mps 692 mmHg 62%
    06:00 +6°C° 0 mm 1 mps 692 mmHg 61%
    07:00 +8°C° 0 mm 1 mps 692 mmHg 55%
    08:00 +9°C° 0 mm 1 mps 692 mmHg 49%
    09:00 +10°C° 0 mm 1 mps 692 mmHg 43%
    10:00 +11°C° 0 mm 1 mps 692 mmHg 40%
    11:00 +13°C° 0 mm 1 mps 691 mmHg 37%
    12:00 +14°C° 0 mm 1 mps 691 mmHg 34%
    13:00 +14°C° 0 mm 1 mps 691 mmHg 33%
    14:00 +14°C° 0 mm 1 mps 690 mmHg 33%
    15:00 +14°C° 0 mm 2 mps 690 mmHg 32%
    16:00 +14°C° 0 mm 2 mps 690 mmHg 33%
    17:00 +13°C° 0 mm 2 mps 690 mmHg 35%
    18:00 +13°C° 0 mm 2 mps 690 mmHg 36%
    19:00 +12°C° 0 mm 2 mps 691 mmHg 40%
    20:00 +9°C° 0 mm 2 mps 691 mmHg 44%
    21:00 +8°C° 0 mm 2 mps 692 mmHg 47%
    22:00 +8°C° 0 mm 1 mps 692 mmHg 49%
    23:00 +8°C° 0 mm 1 mps 692 mmHg 50%
    Show more